Weather History for Grand Rapids, MN

Change the Weather History Date:

Friday, March 22, 2013

  Actual Average Record
Temperature  
Mean Temperature 15 °F -  
Max Temperature 32 °F 40 °F 73 °F (1945)
Min Temperature -2 °F 17 °F -16 °F (1955)
Degree Days  
Heating Degree Days 50    
Moisture  
Dew Point 9 °F    
Average Humidity 73    
Maximum Humidity 92    
Minimum Humidity 55    
Precipitation  
Precipitation 0.00 in - - ()
Sea Level Pressure  
Sea Level Pressure 30.04 in    
Wind  
Wind Speed 2 mph (NNW)    
Max Wind Speed 8 mph    
Max Gust Speed -    
Visibility 10 miles    
Events      
Averages and records for this station are not official NWS values.
T = Trace of Precipitation, MM = Missing Value Source: NWS Daily Summary

Daily Weather History Graph

Daily Weather History Graph

Search for Another Location

Airport:

Trip Planner

Search our weather history database for the weather conditions in past years. The results will help you decide how hot, cold, wet, or windy it might be!

Date:

Astronomy

Mar. 22, 2013 Rise Set
Actual Time 7:12 AM CDT 7:29 PM CDT
Civil Twilight 6:41 AM CDT 8:00 PM CDT
Nautical Twilight 6:05 AM CDT 8:36 PM CDT
Astronomical Twilight 5:28 AM CDT 9:13 PM CDT
Moon 2:42 PM CDT (3/22) 4:30 AM CDT (3/22)
Length of Visible Light 13h 18m
Length of Day
12h 17m
Waxing Gibbous, 77% of the Moon is Illuminated
Mar 22
Waxing Gibbous
Mar 27
Full
Apr 2
Last Quarter
Apr 10
New
Apr 18
First Quarter

Hourly Weather History & Observations

Time (CDT) Temp. Windchill Dew Point Humidity Pressure Visibility Wind Dir Wind Speed Gust Speed Precip Events Conditions
12:15 AM 15.8 °F 8.6 °F 8.6 °F 73% 30.04 in 10.0 mi North 4.6 mph - N/A   Clear
12:35 AM 15.8 °F 10.2 °F 8.6 °F 73% 30.04 in 10.0 mi North 3.5 mph - N/A   Clear
12:55 AM 10.4 °F - 1.4 °F 67% 30.05 in 10.0 mi Calm Calm - N/A   Clear
1:15 AM 8.6 °F - -0.4 °F 67% 30.05 in 10.0 mi Calm Calm - N/A   Clear
1:35 AM 6.8 °F - 3.2 °F 85% 30.05 in 10.0 mi Calm Calm - N/A   Clear
1:55 AM 6.8 °F - 1.4 °F 79% 30.05 in 10.0 mi Calm Calm - N/A   Clear
2:15 AM 5.0 °F - -0.4 °F 78% 30.05 in 10.0 mi Calm Calm - N/A   Clear
2:35 AM 5.0 °F - 1.4 °F 85% 30.06 in 10.0 mi Calm Calm - N/A   Clear
2:55 AM 3.2 °F - -0.4 °F 85% 30.05 in 10.0 mi Calm Calm - N/A   Clear
3:15 AM 3.2 °F - 1.4 °F 92% 30.05 in 10.0 mi Calm Calm - N/A   Clear
3:35 AM 3.2 °F - 1.4 °F 92% 30.05 in 10.0 mi Calm Calm - N/A   Clear
3:55 AM 3.2 °F - -0.4 °F 85% 30.05 in 10.0 mi Calm Calm - N/A   Clear
4:15 AM 1.4 °F - -5.8 °F 72% 30.04 in 10.0 mi Calm Calm - N/A   Clear
4:35 AM 1.4 °F -6.2 °F -0.4 °F 92% 30.04 in 10.0 mi NNW 3.5 mph - N/A   Clear
4:55 AM 1.4 °F -6.2 °F -0.4 °F 92% 30.04 in 10.0 mi NNW 3.5 mph - N/A   Clear
5:15 AM 3.2 °F - 1.4 °F 92% 30.04 in 10.0 mi Calm Calm - N/A   Clear
5:35 AM 1.4 °F - -4.0 °F 78% 30.04 in 10.0 mi Calm Calm - N/A   Clear
5:55 AM -0.4 °F - -4.0 °F 85% 30.04 in 10.0 mi Calm Calm - N/A   Clear
6:15 AM 3.2 °F - 1.4 °F 92% 30.04 in 10.0 mi Calm Calm - N/A   Clear
6:35 AM 1.4 °F - -5.8 °F 72% 30.04 in 10.0 mi Calm Calm - N/A   Clear
6:55 AM -2.2 °F - -5.8 °F 85% 30.05 in 10.0 mi Calm Calm - N/A   Clear
7:15 AM 1.4 °F - -0.4 °F 92% 30.05 in 10.0 mi Calm Calm - N/A   Clear
7:35 AM 1.4 °F - -2.2 °F 85% 30.05 in 10.0 mi Calm Calm - N/A   Clear
7:55 AM 3.2 °F - 1.4 °F 92% 30.05 in 10.0 mi Calm Calm - N/A   Clear
8:15 AM 1.4 °F -6.2 °F -0.4 °F 92% 30.05 in 10.0 mi NNW 3.5 mph - N/A   Clear
8:35 AM 5.0 °F -2.1 °F 1.4 °F 85% 30.05 in 10.0 mi NNW 3.5 mph - N/A   Clear
8:55 AM 6.8 °F -0.1 °F 1.4 °F 79% 30.05 in 10.0 mi NNW 3.5 mph - N/A   Clear
9:15 AM 6.8 °F -2.0 °F 3.2 °F 85% 30.05 in 10.0 mi NNW 4.6 mph - N/A   Clear
9:35 AM 8.6 °F 0.1 °F 3.2 °F 79% 30.05 in 10.0 mi NNW 4.6 mph - N/A   Clear
9:55 AM 10.4 °F 4.0 °F 5.0 °F 79% 30.05 in 10.0 mi NW 3.5 mph - N/A   Mostly Cloudy
10:15 AM 14.0 °F 6.5 °F 8.6 °F 79% 30.05 in 10.0 mi NW 4.6 mph - N/A   Overcast
10:35 AM 17.6 °F 12.3 °F 8.6 °F 68% 30.05 in 10.0 mi WNW 3.5 mph - N/A   Overcast
10:55 AM 17.6 °F 12.3 °F 10.4 °F 73% 30.05 in 10.0 mi NW 3.5 mph - N/A   Overcast
11:15 AM 19.4 °F 12.8 °F 12.2 °F 74% 30.05 in 10.0 mi NW 4.6 mph - N/A   Overcast
11:35 AM 21.2 °F 14.9 °F 12.2 °F 68% 30.05 in 10.0 mi NNW 4.6 mph - N/A   Mostly Cloudy
11:55 AM 23.0 °F 17.0 °F 14.0 °F 68% 30.05 in 10.0 mi NW 4.6 mph - N/A   Mostly Cloudy
12:15 PM 24.8 °F 19.1 °F 14.0 °F 64% 30.04 in 10.0 mi NW 4.6 mph - N/A   Scattered Clouds
12:35 PM 24.8 °F 16.9 °F 15.8 °F 69% 30.04 in 10.0 mi WNW 6.9 mph - N/A   Mostly Cloudy
12:55 PM 26.6 °F 20.0 °F 15.8 °F 64% 30.04 in 10.0 mi NNW 5.8 mph - N/A   Partly Cloudy
1:15 PM 26.6 °F 20.0 °F 15.8 °F 64% 30.04 in 10.0 mi NNW 5.8 mph - N/A   Clear
1:35 PM 26.6 °F 18.2 °F 15.8 °F 64% 30.03 in 10.0 mi NNW 8.1 mph - N/A   Clear
1:55 PM 26.6 °F 18.2 °F 15.8 °F 64% 30.03 in 10.0 mi NNW 8.1 mph - N/A   Clear
2:15 PM 28.4 °F 23.3 °F 17.6 °F 64% 30.02 in 10.0 mi North 4.6 mph - N/A   Clear
2:35 PM 28.4 °F 23.3 °F 17.6 °F 64% 30.02 in 10.0 mi NNW 4.6 mph - N/A   Clear
2:55 PM 30.2 °F 26.7 °F 17.6 °F 60% 30.02 in 10.0 mi NE 3.5 mph - N/A   Clear
3:15 PM 30.2 °F - 17.6 °F 60% 30.02 in 10.0 mi Calm Calm - N/A   Clear
3:35 PM 30.2 °F - 17.6 °F 60% 30.02 in 10.0 mi Calm Calm - N/A   Clear
3:55 PM 32.0 °F 27.5 °F 17.6 °F 55% 30.02 in 10.0 mi WNW 4.6 mph - N/A   Clear
4:15 PM 30.2 °F - 17.6 °F 60% 30.02 in 10.0 mi Calm Calm - N/A   Clear
4:35 PM 32.0 °F 25.6 °F 19.4 °F 60% 30.01 in 10.0 mi NNW 6.9 mph - N/A   Clear
4:55 PM 32.0 °F 27.5 °F 19.4 °F 60% 30.02 in 10.0 mi NNW 4.6 mph - N/A   Clear
5:15 PM 32.0 °F 26.4 °F 19.4 °F 60% 30.02 in 10.0 mi NW 5.8 mph - N/A   Clear
5:35 PM 32.0 °F 26.4 °F 19.4 °F 60% 30.02 in 10.0 mi WNW 5.8 mph - N/A   Clear
5:55 PM 32.0 °F 28.7 °F 19.4 °F 60% 30.02 in 10.0 mi NW 3.5 mph - N/A   Clear
6:15 PM 32.0 °F 27.5 °F 17.6 °F 55% 30.03 in 10.0 mi NW 4.6 mph - N/A   Clear
6:35 PM 32.0 °F 28.7 °F 17.6 °F 55% 30.03 in 10.0 mi East 3.5 mph - N/A   Clear
6:55 PM 32.0 °F - 17.6 °F 55% 30.04 in 10.0 mi Calm Calm - N/A   Clear
7:15 PM 30.2 °F 26.7 °F 17.6 °F 60% 30.04 in 10.0 mi NE 3.5 mph - N/A   Partly Cloudy
7:35 PM 30.2 °F - 17.6 °F 60% 30.04 in 10.0 mi Calm Calm - N/A   Mostly Cloudy
7:55 PM 28.4 °F - 17.6 °F 64% 30.04 in 10.0 mi Calm Calm - N/A   Scattered Clouds
8:15 PM 28.4 °F - 17.6 °F 64% 30.04 in 10.0 mi Calm Calm - N/A   Clear
8:35 PM 26.6 °F - 15.8 °F 64% 30.05 in 10.0 mi Calm Calm - N/A   Clear
8:55 PM 26.6 °F 22.6 °F 17.6 °F 69% 30.05 in 10.0 mi NE 3.5 mph - N/A   Clear
9:15 PM 26.6 °F 22.6 °F 17.6 °F 69% 30.05 in 10.0 mi NE 3.5 mph - N/A   Clear
9:35 PM 26.6 °F - 15.8 °F 64% 30.05 in 10.0 mi Calm Calm - N/A   Clear
9:55 PM 24.8 °F 20.5 °F 15.8 °F 69% 30.05 in 10.0 mi NNE 3.5 mph - N/A   Clear
10:15 PM 23.0 °F - 14.0 °F 68% 30.05 in 10.0 mi Calm Calm - N/A   Clear
10:35 PM 23.0 °F - 15.8 °F 74% 30.06 in 10.0 mi Calm Calm - N/A   Clear
10:55 PM 19.4 °F - 12.2 °F 74% 30.06 in 10.0 mi Calm Calm - N/A   Clear
11:15 PM 17.6 °F - 12.2 °F 79% 30.06 in 10.0 mi Calm Calm - N/A   Clear
11:35 PM 15.8 °F - 10.4 °F 79% 30.06 in 10.0 mi Calm Calm - N/A   Clear
11:55 PM 17.6 °F - 10.4 °F 73% 30.06 in 10.0 mi Calm Calm - N/A   Clear